Location: A�t Lahcen
(32.8243°N, 5.4246°W)
Time: 00:34:22
(UTC+00:00)

Lacrosse 4 Rocket - Pass Details

Date: 27 January 2021
Orbit: 536 x 621 km, 68.0° (Epoch: 27 February)

Event Time Altitude Azimuth Distance (km) Brightness Sun altitude
Exits shadow 05:40:46 13° 355° (N) 1,699 3.7 -20.9°
Drops below altitude 10° 05:41:25 10° 0° (N) 1,916 4.0 -20.7°
Sets 05:43:58 0° 12° (NNE) 2,837 5.0 -20.2°
